This demonstration page uses our WeatherBlox Daily Observations layout. Learn more.

Hourly Observations for February 4, 2017

Temp ( °F °C ) Dew Point ( °F °C ) Humidity (%) Winds ( mph kmh ) Pressure ( in mb ) Visibility ( mi km ) Precip ( " mm )
12:15 am 00:15 Clear 24 -4.6 15 -9.4 69 69 S 17 28 30.27 1025 10 16.0934 0 0
12:35 am 00:35 Clear 23 -4.8 15 -9.5 70 70 S 15 24 30.27 1025 10 16.0934 0 0
12:55 am 00:55 Clear 23 -5 15 -9.5 71 71 S 18 30 30.24 1024 10 16.0934 0 0
1:15 am 01:15 Clear 23 -5.1 15 -9.5 72 72 S 15 24 30.24 1024 10 16.0934 0 0
1:35 am 01:35 Clear 23 -5.1 15 -9.5 72 72 S 14 22 30.21 1023 10 16.0934 0 0
1:55 am 01:55 Clear 22 -5.3 15 -9.7 72 72 S 15 24 30.21 1023 10 16.0934 0 0
2:15 am 02:15 Clear 22 -5.5 14 -9.8 72 72 S 15 24 30.18 1022 10 16.0934 0 0
2:35 am 02:35 Clear 22 -5.3 14 -9.9 70 70 S 14 22 30.18 1022 10 16.0934 0 0
2:55 am 02:55 Clear 22 -5.3 14 -10 70 70 S 16 26 30.18 1022 10 16.0934 0 0
3:15 am 03:15 Clear 23 -5.2 14 -10 69 69 S 16 26 30.15 1021 10 16.0934 0 0
3:35 am 03:35 Clear 22 -5.4 14 -10 70 70 S 16 26 30.12 1020 10 16.0934 0 0
3:55 am 03:55 Clear 23 -5.1 14 -10 69 69 S 14 22 30.12 1020 10 16.0934 0 0
4:15 am 04:15 Clear 23 -5 14 -9.8 69 69 S 16 26 30.09 1019 10 16.0934 0 0
4:35 am 04:35 Clear 24 -4.7 14 -10 67 67 S 16 26 30.12 1020 10 16.0934 0 0
4:55 am 04:55 Clear 23 -4.8 14 -10 67 67 S 17 28 30.09 1019 10 16.0934 0 0
5:15 am 05:15 Clear 23 -5 14 -10.1 68 68 S 17 28 30.06 1018 10 16.0934 0 0
5:35 am 05:35 Clear 22 -5.4 14 -10.1 70 70 S 14 22 30.06 1018 10 16.0934 0 0
5:55 am 05:55 Clear 22 -5.5 14 -10.1 70 70 S 16 26 30.06 1018 10 16.0934 0 0
6:15 am 06:15 Clear 22 -5.6 14 -10.1 71 71 S 15 24 30.06 1018 10 16.0934 0 0
6:35 am 06:35 Clear 22 -5.6 14 -10.2 70 70 S 14 22 30.03 1017 10 16.0934 0 0
6:55 am 06:55 Clear 22 -5.6 14 -10.1 71 71 S 16 26 30.03 1017 10 16.0934 0 0
7:15 am 07:15 Clear 22 -5.7 14 -10.2 71 71 S 15 24 30.03 1017 10 16.0934 0 0
7:35 am 07:35 Clear 22 -5.7 14 -10.1 71 71 SSW 13 20 30 1016 10 16.0934 0 0
7:55 am 07:55 Sunny 22 -5.7 14 -10.1 71 71 S 14 22 30 1016 10 16.0934 0 0
8:15 am 08:15 Sunny 22 -5.5 14 -10 71 71 SSW 13 20 30 1016 10 16.0934 0 0
8:35 am 08:35 Sunny 23 -4.8 15 -9.6 69 69 SSW 14 22 29.97 1015 10 16.0934 0 0
8:55 am 08:55 Sunny 25 -4 15 -9.5 66 66 SSW 16 26 29.97 1015 10 16.0934 0 0
9:15 am 09:15 Sunny 26 -3.2 16 -8.9 65 65 SSW 13 20 29.94 1014 10 16.0934 0 0
9:35 am 09:35 Sunny 28 -2 18 -8 64 64 SSW 12 19 29.91 1013 10 16.0934 0 0
9:55 am 09:55 Sunny 30 -1.2 19 -7.5 63 63 SW 12 19 29.91 1013 10 16.0934 0 0
10:15 am 10:15 Sunny 31 -0.5 20 -6.9 62 62 SW 12 19 29.91 1013 10 16.0934 0 0
10:35 am 10:35 Sunny 33 0.3 21 -6.3 62 62 SSW 12 19 29.91 1013 10 16.0934 0 0
10:55 am 10:55 Sunny 35 1.4 22 -5.4 61 61 SW 13 20 29.88 1012 10 16.0934 0 0
11:15 am 11:15 Sunny 36 2.4 23 -4.8 59 59 SW 12 19 29.88 1012 10 16.0934 0 0
11:35 am 11:35 Sunny 38 3.5 24 -4.6 56 56 SW 14 22 29.85 1011 10 16.0934 0 0
11:55 am 11:55 Sunny 41 4.8 25 -3.7 54 54 SW 14 22 29.83 1010 10 16.0934 0 0
12:15 pm 12:15 Sunny 43 6.3 26 -3.1 51 51 SW 13 20 29.83 1010 10 16.0934 0 0
12:35 pm 12:35 Sunny 46 7.5 26 -3.2 47 47 SW 12 19 29.8 1009 10 16.0934 0 0
12:55 pm 12:55 Sunny 49 9.2 27 -2.6 44 44 WSW 14 22 29.8 1009 10 16.0934 0 0
1:15 pm 13:15 Sunny 51 10.3 28 -2.2 42 42 WSW 13 20 29.8 1009 10 16.0934 0 0
1:35 pm 13:35 Sunny 53 11.5 29 -1.8 40 40 WSW 13 20 29.77 1008 10 16.0934 0 0
1:55 pm 13:55 Sunny 55 12.6 29 -1.5 38 38 W 16 26 29.77 1008 10 16.0934 0 0
2:15 pm 14:15 Sunny 56 13.6 30 -1 37 37 W 15 24 29.77 1008 10 16.0934 0 0
2:35 pm 14:35 Sunny 57 14 31 -0.6 37 37 W 16 26 29.74 1007 10 16.0934 0 0
2:55 pm 14:55 Sunny 57 14.1 31 -0.3 37 37 W 14 22 29.74 1007 10 16.0934 0 0
3:15 pm 15:15 Sunny 58 14.6 32 -0.1 37 37 W 16 26 29.74 1007 10 16.0934 0 0
3:35 pm 15:35 Sunny 59 15.1 32 0 36 36 W 12 19 29.74 1007 10 16.0934 0 0
3:55 pm 15:55 Sunny 60 15.3 32 0 35 35 WNW 10 17 29.74 1007 10 16.0934 0 0
4:15 pm 16:15 Sunny 59 15.1 32 0.2 36 36 WNW 8 13 29.74 1007 10 16.0934 0 0
4:35 pm 16:35 Sunny 59 15 34 1 39 39 WNW 7 11 29.74 1007 10 16.0934 0 0
4:55 pm 16:55 Sunny 58 14.5 35 1.5 42 42 NW 3 6 29.74 1007 10 16.0934 0 0
5:15 pm 17:15 Sunny 56 13.6 35 1.5 44 44 NNW 3 6 29.77 1008 10 16.0934 0 0
5:35 pm 17:35 Sunny 55 13 35 1.7 46 46 Calm 29.77 1008 10 16.0934 0 0
5:55 pm 17:55 Sunny 51 10.6 36 2 56 56 Calm 29.83 1010 10 16.0934 0 0
6:15 pm 18:15 Clear 51 10.8 35 1.9 54 54 Calm 29.8 1009 10 16.0934 0 0
6:35 pm 18:35 Clear 46 7.7 33 0.7 62 62 SW 3 6 29.83 1010 10 16.0934 0 0
6:55 pm 18:55 Clear 42 5.3 32 -0.2 68 68 Calm 29.85 1011 10 16.0934 0 0
7:15 pm 19:15 Clear 44 6.4 33 0.5 66 66 Calm 29.85 1011 10 16.0934 0 0
7:35 pm 19:35 Clear 43 5.9 33 0.4 68 68 Calm 29.88 1012 10 16.0934 0 0
7:55 pm 19:55 Clear 42 5.5 33 0.3 69 69 SSW 6 9 29.88 1012 10 16.0934 0 0
8:15 pm 20:15 Clear 40 4.4 32 -0.1 73 73 WSW 3 6 29.91 1013 10 16.0934 0 0
8:35 pm 20:35 Clear 36 2.4 29 -1.8 74 74 NNW 7 11 29.94 1014 10 16.0934 0 0
8:55 pm 20:55 Clear 38 3.3 31 -0.4 77 77 N 10 17 29.97 1015 10 16.0934 0 0
9:15 pm 21:15 Clear 38 3.1 31 -0.7 76 76 NNE 10 17 29.97 1015 10 16.0934 0 0
9:35 pm 21:35 Clear 36 2.4 29 -1.4 76 76 NNE 15 24 30 1016 10 16.0934 0 0
9:55 pm 21:55 Clear 35 1.5 29 -1.7 80 80 NNE 13 20 30.03 1017 10 16.0934 0 0
10:15 pm 22:15 Clear 33 0.5 28 -2.2 82 82 NNE 10 17 30.03 1017 10 16.0934 0 0
10:35 pm 22:35 Clear 32 0 28 -2.4 84 84 N 6 9 30.06 1018 10 16.0934 0 0
10:55 pm 22:55 Clear 32 0 26 -3.4 78 78 N 9 15 30.06 1018 10 16.0934 0 0
11:15 pm 23:15 Clear 31 -0.5 24 -4.5 75 75 N 8 13 30.06 1018 10 16.0934 0 0
11:35 pm 23:35 Clear 31 -0.6 23 -5 72 72 N 10 17 30.06 1018 10 16.0934 0 0
11:55 pm 23:55 Clear 30 -1.2 23 -5 76 76 N 9 15 30.09 1019 10 16.0934 0 0

Powered by AerisWeather